Time,TemperatureF,DewpointF,PressureIn,WindDirection,WindDirectionDegrees,WindSpeedMPH,WindSpeedGustMPH,Humidity,HourlyPrecipIn,Conditions,Clouds,dailyrainin,SoftwareType,DateUTC
2013-08-26 00:00:00,61.8,58.8,30.35,ESE,113,0.0,0.0,90,0.00,,,0.00,Wunderground v.1.15,2013-08-26 04:00:00,
2013-08-26 00:05:00,61.8,58.8,30.35,ESE,113,0.0,0.0,90,0.00,,,0.00,Wunderground v.1.15,2013-08-26 04:05:00,
2013-08-26 00:10:00,61.7,58.7,30.35,ESE,113,0.0,0.0,90,0.00,,,0.00,Wunderground v.1.15,2013-08-26 04:10:00,
2013-08-26 00:15:00,61.7,58.7,30.35,ESE,113,0.0,0.0,90,0.00,,,0.00,Wunderground v.1.15,2013-08-26 04:15:00,
2013-08-26 00:20:00,61.6,58.6,30.35,ESE,113,0.0,0.0,90,0.00,,,0.00,Wunderground v.1.15,2013-08-26 04:20:00,
2013-08-26 00:30:00,61.5,58.8,30.35,ESE,113,0.0,0.0,91,0.00,,,0.00,Wunderground v.1.15,2013-08-26 04:30:00,
2013-08-26 00:40:00,61.2,58.6,30.35,ESE,113,0.0,0.0,91,0.00,,,0.00,Wunderground v.1.15,2013-08-26 04:40:00,
2013-08-26 00:50:00,60.9,58.3,30.35,ESE,113,0.0,0.0,91,0.00,,,0.00,Wunderground v.1.15,2013-08-26 04:50:00,
2013-08-26 01:00:00,60.8,58.5,30.35,ESE,113,0.0,0.0,92,0.00,,,0.00,Wunderground v.1.15,2013-08-26 05:00:00,
2013-08-26 01:05:00,60.7,58.4,30.35,ESE,113,0.0,0.0,92,0.00,,,0.00,Wunderground v.1.15,2013-08-26 05:05:00,
2013-08-26 01:15:00,60.5,58.2,30.35,ESE,113,0.0,0.0,92,0.00,,,0.00,Wunderground v.1.15,2013-08-26 05:15:00,
2013-08-26 01:20:00,60.4,58.4,30.35,ESE,113,0.0,0.0,93,0.00,,,0.00,Wunderground v.1.15,2013-08-26 05:20:00,
2013-08-26 01:30:00,60.3,58.0,30.34,ESE,113,0.0,0.0,92,0.00,,,0.00,Wunderground v.1.15,2013-08-26 05:30:00,
2013-08-26 01:40:00,60.0,58.0,30.34,ESE,113,0.0,0.0,93,0.00,,,0.00,Wunderground v.1.15,2013-08-26 05:40:00,
2013-08-26 01:45:00,60.0,58.0,30.34,ESE,113,0.0,0.0,93,0.00,,,0.00,Wunderground v.1.15,2013-08-26 05:45:00,
2013-08-26 01:55:00,60.0,58.3,30.34,ESE,113,0.0,0.0,94,0.00,,,0.00,Wunderground v.1.15,2013-08-26 05:55:00,
2013-08-26 02:00:00,59.8,57.8,30.34,ESE,113,0.0,0.0,93,0.00,,,0.00,Wunderground v.1.15,2013-08-26 06:00:00,
2013-08-26 02:05:00,59.7,57.7,30.34,ESE,113,0.0,0.0,93,0.00,,,0.00,Wunderground v.1.15,2013-08-26 06:05:00,
2013-08-26 02:15:00,59.5,57.8,30.33,ESE,113,0.0,0.0,94,0.00,,,0.00,Wunderground v.1.15,2013-08-26 06:15:00,
2013-08-26 02:20:00,59.3,57.6,30.33,ESE,113,0.0,0.0,94,0.00,,,0.00,Wunderground v.1.15,2013-08-26 06:20:00,
2013-08-26 02:25:00,59.3,57.6,30.33,ESE,113,0.0,0.0,94,0.00,,,0.00,Wunderground v.1.15,2013-08-26 06:25:00,
2013-08-26 02:30:00,59.1,57.4,30.33,ESE,113,0.0,0.0,94,0.00,,,0.00,Wunderground v.1.15,2013-08-26 06:30:00,
2013-08-26 02:35:00,58.9,57.2,30.33,ESE,113,0.0,0.0,94,0.00,,,0.00,Wunderground v.1.15,2013-08-26 06:35:00,
2013-08-26 02:40:00,58.9,57.2,30.33,ESE,113,0.0,0.0,94,0.00,,,0.00,Wunderground v.1.15,2013-08-26 06:40:00,
2013-08-26 02:45:00,58.7,57.0,30.33,ESE,113,0.0,0.0,94,0.00,,,0.00,Wunderground v.1.15,2013-08-26 06:45:00,
2013-08-26 02:50:00,58.6,56.9,30.32,ESE,113,0.0,0.0,94,0.00,,,0.00,Wunderground v.1.15,2013-08-26 06:50:00,
2013-08-26 03:00:00,58.6,57.2,30.32,ESE,113,0.0,0.0,95,0.00,,,0.00,Wunderground v.1.15,2013-08-26 07:00:00,
2013-08-26 03:05:00,58.7,57.3,30.33,ESE,113,0.0,0.0,95,0.00,,,0.00,Wunderground v.1.15,2013-08-26 07:05:00,
2013-08-26 03:15:00,58.6,57.2,30.33,ESE,113,0.0,0.0,95,0.00,,,0.00,Wunderground v.1.15,2013-08-26 07:15:00,
2013-08-26 03:20:00,58.4,56.7,30.32,ESE,113,0.0,0.0,94,0.00,,,0.00,Wunderground v.1.15,2013-08-26 07:20:00,
2013-08-26 03:30:00,58.2,56.8,30.32,ESE,113,0.0,0.0,95,0.00,,,0.00,Wunderground v.1.15,2013-08-26 07:30:00,
2013-08-26 03:40:00,58.1,56.7,30.32,ESE,113,0.0,0.0,95,0.00,,,0.00,Wunderground v.1.15,2013-08-26 07:40:00,
2013-08-26 03:50:00,57.8,56.4,30.32,ESE,113,0.0,0.0,95,0.00,,,0.00,Wunderground v.1.15,2013-08-26 07:50:00,
2013-08-26 03:55:00,57.6,56.2,30.32,ESE,113,0.0,0.0,95,0.00,,,0.00,Wunderground v.1.15,2013-08-26 07:55:00,
2013-08-26 04:05:00,57.2,55.8,30.31,ESE,113,0.0,0.0,95,0.00,,,0.00,Wunderground v.1.15,2013-08-26 08:05:00,
2013-08-26 04:15:00,56.9,55.5,30.31,ESE,113,0.0,0.0,95,0.00,,,0.00,Wunderground v.1.15,2013-08-26 08:15:00,
2013-08-26 04:25:00,56.8,55.4,30.31,ESE,113,0.0,0.0,95,0.00,,,0.00,Wunderground v.1.15,2013-08-26 08:25:00,
2013-08-26 04:35:00,56.6,55.2,30.31,ESE,113,0.0,0.0,95,0.00,,,0.00,Wunderground v.1.15,2013-08-26 08:35:00,
2013-08-26 04:45:00,57.1,56.0,30.30,ESE,113,0.0,0.0,96,0.00,,,0.00,Wunderground v.1.15,2013-08-26 08:45:00,
2013-08-26 04:55:00,56.9,55.5,30.30,ESE,113,0.0,0.0,95,0.00,,,0.00,Wunderground v.1.15,2013-08-26 08:55:00,
2013-08-26 05:05:00,56.4,55.0,30.30,ESE,113,0.0,0.0,95,0.00,,,0.00,Wunderground v.1.15,2013-08-26 09:05:00,
2013-08-26 05:15:00,56.4,55.3,30.30,ESE,113,0.0,0.0,96,0.00,,,0.00,Wunderground v.1.15,2013-08-26 09:15:00,
2013-08-26 05:25:00,56.4,55.3,30.31,ESE,113,0.0,0.0,96,0.00,,,0.00,Wunderground v.1.15,2013-08-26 09:25:00,
2013-08-26 05:35:00,56.2,55.1,30.30,ESE,113,0.0,0.0,96,0.00,,,0.00,Wunderground v.1.15,2013-08-26 09:35:00,
2013-08-26 05:45:00,56.1,55.0,30.30,ESE,113,0.0,0.0,96,0.00,,,0.00,Wunderground v.1.15,2013-08-26 09:45:00,
2013-08-26 05:55:00,55.8,54.7,30.30,ESE,113,0.0,0.0,96,0.00,,,0.00,Wunderground v.1.15,2013-08-26 09:55:00,
2013-08-26 06:00:00,55.6,54.5,30.30,ESE,113,0.0,0.0,96,0.00,,,0.00,Wunderground v.1.15,2013-08-26 10:00:00,
2013-08-26 06:05:00,55.6,54.5,30.30,ESE,113,0.0,0.0,96,0.00,,,0.00,Wunderground v.1.15,2013-08-26 10:05:00,
2013-08-26 06:15:00,56.3,55.5,30.30,ESE,113,0.0,0.0,97,0.00,,,0.00,Wunderground v.1.15,2013-08-26 10:15:00,
2013-08-26 06:25:00,56.5,55.4,30.30,ESE,113,0.0,0.0,96,0.00,,,0.00,Wunderground v.1.15,2013-08-26 10:25:00,
2013-08-26 06:35:00,56.0,54.9,30.30,ESE,113,0.0,0.0,96,0.00,,,0.00,Wunderground v.1.15,2013-08-26 10:35:00,
2013-08-26 06:40:00,56.0,54.9,30.30,ESE,113,0.0,0.0,96,0.00,,,0.00,Wunderground v.1.15,2013-08-26 10:40:00,
2013-08-26 06:45:00,55.7,54.6,30.30,ESE,113,0.0,0.0,96,0.00,,,0.00,Wunderground v.1.15,2013-08-26 10:45:00,
2013-08-26 06:55:00,55.7,54.6,30.30,ESE,113,0.0,0.0,96,0.00,,,0.00,Wunderground v.1.15,2013-08-26 10:55:00,
2013-08-26 07:00:00,55.9,55.1,30.30,ESE,113,0.0,0.0,97,0.00,,,0.00,Wunderground v.1.15,2013-08-26 11:00:00,
2013-08-26 07:05:00,55.9,54.8,30.30,ESE,113,0.0,0.0,96,0.00,,,0.00,Wunderground v.1.15,2013-08-26 11:05:00,
2013-08-26 07:15:00,56.0,54.9,30.31,ESE,113,0.0,0.0,96,0.00,,,0.00,Wunderground v.1.15,2013-08-26 11:15:00,
2013-08-26 07:25:00,56.1,55.3,30.31,ESE,113,0.0,0.0,97,0.00,,,0.00,Wunderground v.1.15,2013-08-26 11:25:00,
2013-08-26 07:35:00,56.9,56.1,30.30,ESE,113,0.0,0.0,97,0.00,,,0.01,Wunderground v.1.15,2013-08-26 11:35:00,
2013-08-26 07:40:00,57.4,56.6,30.31,ESE,113,0.0,0.0,97,0.00,,,0.01,Wunderground v.1.15,2013-08-26 11:40:00,
2013-08-26 07:50:00,58.3,57.5,30.31,ESE,113,0.0,0.0,97,0.00,,,0.01,Wunderground v.1.15,2013-08-26 11:50:00,
2013-08-26 08:00:00,58.9,58.3,30.31,ESE,113,0.0,0.0,98,0.00,,,0.01,Wunderground v.1.15,2013-08-26 12:00:00,
2013-08-26 08:05:00,59.4,58.8,30.31,ESE,113,0.0,0.0,98,0.00,,,0.01,Wunderground v.1.15,2013-08-26 12:05:00,
2013-08-26 08:15:00,60.6,60.0,30.32,ESE,113,0.0,0.0,98,0.00,,,0.01,Wunderground v.1.15,2013-08-26 12:15:00,
2013-08-26 08:25:00,61.5,60.9,30.32,ESE,113,0.0,0.0,98,0.00,,,0.01,Wunderground v.1.15,2013-08-26 12:25:00,
2013-08-26 08:35:00,62.1,61.2,30.31,ESE,113,0.0,0.0,97,0.00,,,0.01,Wunderground v.1.15,2013-08-26 12:35:00,
2013-08-26 08:45:00,63.1,62.2,30.32,ESE,113,0.0,0.0,97,0.00,,,0.01,Wunderground v.1.15,2013-08-26 12:45:00,
2013-08-26 08:55:00,64.5,63.3,30.32,ESE,113,0.0,0.0,96,0.00,,,0.01,Wunderground v.1.15,2013-08-26 12:55:00,
2013-08-26 09:00:00,64.9,63.4,30.32,ESE,113,0.0,0.0,95,0.00,,,0.01,Wunderground v.1.15,2013-08-26 13:00:00,
2013-08-26 09:05:00,65.5,63.4,30.32,ESE,113,0.0,0.0,93,0.00,,,0.01,Wunderground v.1.15,2013-08-26 13:05:00,
2013-08-26 09:15:00,66.4,63.1,30.32,ESE,113,0.0,0.0,89,0.00,,,0.01,Wunderground v.1.15,2013-08-26 13:15:00,
2013-08-26 09:20:00,67.4,64.0,30.32,ESE,113,0.0,0.0,89,0.00,,,0.01,Wunderground v.1.15,2013-08-26 13:20:00,
2013-08-26 09:30:00,68.5,63.1,30.32,ESE,113,0.0,0.0,83,0.00,,,0.01,Wunderground v.1.15,2013-08-26 13:30:00,
2013-08-26 09:40:00,68.9,63.2,30.33,ESE,113,0.0,0.0,82,0.00,,,0.01,Wunderground v.1.15,2013-08-26 13:40:00,
2013-08-26 09:50:00,69.7,63.3,30.32,ESE,113,0.0,0.0,80,0.00,,,0.01,Wunderground v.1.15,2013-08-26 13:50:00,
2013-08-26 10:00:00,70.3,62.7,30.32,ESE,113,0.0,0.0,77,0.00,,,0.01,Wunderground v.1.15,2013-08-26 14:00:00,
2013-08-26 10:05:00,70.5,62.2,30.32,South,173,1.0,1.0,75,0.00,,,0.01,Wunderground v.1.15,2013-08-26 14:05:00,
2013-08-26 10:15:00,71.2,62.9,30.32,South,179,0.0,1.0,75,0.00,,,0.01,Wunderground v.1.15,2013-08-26 14:15:00,
2013-08-26 10:25:00,72.2,63.1,30.32,SSW,213,0.0,0.0,73,0.00,,,0.01,Wunderground v.1.15,2013-08-26 14:25:00,
2013-08-26 10:35:00,72.9,63.3,30.32,SW,234,1.0,1.0,72,0.00,,,0.01,Wunderground v.1.15,2013-08-26 14:35:00,
2013-08-26 10:45:00,73.0,63.4,30.32,West,261,1.0,3.0,72,0.00,,,0.01,Wunderground v.1.15,2013-08-26 14:45:00,
2013-08-26 10:55:00,73.4,63.8,30.32,West,261,0.0,0.0,72,0.00,,,0.01,Wunderground v.1.15,2013-08-26 14:55:00,
2013-08-26 11:05:00,73.9,63.1,30.31,West,261,1.0,1.0,69,0.00,,,0.01,Wunderground v.1.15,2013-08-26 15:05:00,
2013-08-26 11:15:00,74.2,64.2,30.31,West,261,0.0,1.0,71,0.00,,,0.01,Wunderground v.1.15,2013-08-26 15:15:00,
2013-08-26 11:20:00,74.3,63.5,30.31,West,261,0.0,0.0,69,0.00,,,0.01,Wunderground v.1.15,2013-08-26 15:20:00,
2013-08-26 11:30:00,75.0,64.5,30.31,West,261,0.0,0.0,70,0.00,,,0.01,Wunderground v.1.15,2013-08-26 15:30:00,
2013-08-26 11:40:00,75.7,63.5,30.31,West,267,0.0,0.0,66,0.00,,,0.01,Wunderground v.1.15,2013-08-26 15:40:00,
2013-08-26 11:50:00,75.6,63.9,30.30,West,275,1.0,1.0,67,0.00,,,0.01,Wunderground v.1.15,2013-08-26 15:50:00,
2013-08-26 12:00:00,75.7,64.4,30.30,WNW,296,2.0,2.0,68,0.00,,,0.01,Wunderground v.1.15,2013-08-26 16:00:00,
2013-08-26 12:05:00,75.7,63.1,30.30,WNW,294,3.0,3.0,65,0.00,,,0.01,Wunderground v.1.15,2013-08-26 16:05:00,
2013-08-26 12:15:00,76.4,62.9,30.30,WNW,297,1.0,3.0,63,0.00,,,0.01,Wunderground v.1.15,2013-08-26 16:15:00,
2013-08-26 12:25:00,76.9,62.4,30.29,NW,312,1.0,1.0,61,0.00,,,0.01,Wunderground v.1.15,2013-08-26 16:25:00,
2013-08-26 12:35:00,77.5,62.0,30.28,NW,324,1.0,1.0,59,0.00,,,0.01,Wunderground v.1.15,2013-08-26 16:35:00,
2013-08-26 12:40:00,77.4,59.5,30.28,NNW,335,1.0,1.0,54,0.00,,,0.01,Wunderground v.1.15,2013-08-26 16:40:00,
2013-08-26 12:45:00,77.0,61.6,30.27,NNW,335,1.0,1.0,59,0.00,,,0.01,Wunderground v.1.15,2013-08-26 16:45:00,
2013-08-26 12:55:00,77.8,62.3,30.27,NNW,335,0.0,0.0,59,0.00,,,0.01,Wunderground v.1.15,2013-08-26 16:55:00,
2013-08-26 13:05:00,77.5,60.6,30.27,NNW,342,1.0,1.0,56,0.00,,,0.01,Wunderground v.1.15,2013-08-26 17:05:00,
2013-08-26 13:15:00,77.7,60.8,30.26,NNW,342,0.0,0.0,56,0.00,,,0.01,Wunderground v.1.15,2013-08-26 17:15:00,
2013-08-26 13:20:00,78.3,60.3,30.26,North,355,0.0,5.0,54,0.00,,,0.01,Wunderground v.1.15,2013-08-26 17:20:00,
2013-08-26 13:25:00,77.9,60.4,30.26,North,360,1.0,5.0,55,0.00,,,0.01,Wunderground v.1.15,2013-08-26 17:25:00,
2013-08-26 13:30:00,78.0,60.0,30.26,North,9,1.0,1.0,54,0.00,,,0.01,Wunderground v.1.15,2013-08-26 17:30:00,
2013-08-26 13:40:00,78.6,61.6,30.26,North,9,0.0,0.0,56,0.00,,,0.01,Wunderground v.1.15,2013-08-26 17:40:00,
2013-08-26 13:50:00,79.4,65.2,30.26,North,5,1.0,1.0,62,0.00,,,0.01,Wunderground v.1.15,2013-08-26 17:50:00,
2013-08-26 14:00:00,79.1,62.6,30.25,NNE,19,1.0,1.0,57,0.00,,,0.01,Wunderground v.1.15,2013-08-26 18:00:00,
2013-08-26 14:05:00,79.6,63.0,30.25,North,5,1.0,1.0,57,0.00,,,0.01,Wunderground v.1.15,2013-08-26 18:05:00,
2013-08-26 14:15:00,79.9,61.8,30.25,NNW,336,1.0,2.0,54,0.00,,,0.01,Wunderground v.1.15,2013-08-26 18:15:00,
2013-08-26 14:25:00,79.8,61.1,30.24,NNW,329,1.0,1.0,53,0.00,,,0.01,Wunderground v.1.15,2013-08-26 18:25:00,
2013-08-26 14:35:00,80.3,61.1,30.24,SW,221,2.0,4.0,52,0.00,,,0.01,Wunderground v.1.15,2013-08-26 18:35:00,
2013-08-26 14:40:00,80.2,63.1,30.23,WSW,246,2.0,2.0,56,0.00,,,0.01,Wunderground v.1.15,2013-08-26 18:40:00,
2013-08-26 14:45:00,80.3,62.7,30.23,WSW,252,1.0,2.0,55,0.00,,,0.01,Wunderground v.1.15,2013-08-26 18:45:00,
2013-08-26 14:55:00,80.1,61.4,30.22,WSW,257,1.0,4.0,53,0.00,,,0.01,Wunderground v.1.15,2013-08-26 18:55:00,
2013-08-26 15:05:00,80.4,61.2,30.22,West,263,0.0,1.0,52,0.00,,,0.01,Wunderground v.1.15,2013-08-26 19:05:00,
2013-08-26 15:15:00,80.9,62.7,30.21,WSW,239,2.0,7.0,54,0.00,,,0.01,Wunderground v.1.15,2013-08-26 19:15:00,
2013-08-26 15:25:00,80.5,61.8,30.21,WNW,290,3.0,5.0,53,0.00,,,0.01,Wunderground v.1.15,2013-08-26 19:25:00,
2013-08-26 15:30:00,80.7,59.8,30.20,WNW,290,1.0,1.0,49,0.00,,,0.01,Wunderground v.1.15,2013-08-26 19:30:00,
2013-08-26 15:35:00,81.1,61.3,30.20,WNW,290,0.0,1.0,51,0.00,,,0.01,Wunderground v.1.15,2013-08-26 19:35:00,
2013-08-26 15:45:00,81.0,63.3,30.20,West,279,1.0,1.0,55,0.00,,,0.01,Wunderground v.1.15,2013-08-26 19:45:00,
2013-08-26 15:55:00,81.6,62.8,30.19,SSW,202,1.0,4.0,53,0.00,,,0.01,Wunderground v.1.15,2013-08-26 19:55:00,
2013-08-26 16:05:00,81.4,63.2,30.18,WSW,240,0.0,6.0,54,0.00,,,0.01,Wunderground v.1.15,2013-08-26 20:05:00,
2013-08-26 16:10:00,81.4,60.4,30.18,WSW,243,1.0,1.0,49,0.00,,,0.01,Wunderground v.1.15,2013-08-26 20:10:00,
2013-08-26 16:20:00,82.1,59.9,30.17,WSW,243,0.0,0.0,47,0.00,,,0.01,Wunderground v.1.15,2013-08-26 20:20:00,
2013-08-26 16:30:00,82.5,60.8,30.17,WSW,251,0.0,2.0,48,0.00,,,0.01,Wunderground v.1.15,2013-08-26 20:30:00,
2013-08-26 16:40:00,82.0,59.8,30.17,WSW,248,0.0,0.0,47,0.00,,,0.01,Wunderground v.1.15,2013-08-26 20:40:00,
2013-08-26 16:50:00,83.2,62.1,30.17,WSW,249,0.0,0.0,49,0.00,,,0.01,Wunderground v.1.15,2013-08-26 20:50:00,
2013-08-26 17:00:00,83.1,60.8,30.17,WSW,247,1.0,1.0,47,0.00,,,0.01,Wunderground v.1.15,2013-08-26 21:00:00,
2013-08-26 17:05:00,83.1,62.5,30.17,WSW,240,1.0,1.0,50,0.00,,,0.01,Wunderground v.1.15,2013-08-26 21:05:00,
2013-08-26 17:15:00,83.1,61.4,30.17,WSW,240,0.0,1.0,48,0.00,,,0.01,Wunderground v.1.15,2013-08-26 21:15:00,
2013-08-26 17:25:00,82.8,61.1,30.17,WSW,240,1.0,1.0,48,0.00,,,0.01,Wunderground v.1.15,2013-08-26 21:25:00,
2013-08-26 17:35:00,82.9,61.2,30.16,WSW,240,0.0,0.0,48,0.00,,,0.01,Wunderground v.1.15,2013-08-26 21:35:00,
2013-08-26 17:40:00,83.0,61.3,30.16,WSW,240,0.0,0.0,48,0.00,,,0.01,Wunderground v.1.15,2013-08-26 21:40:00,
2013-08-26 17:50:00,83.0,62.4,30.16,WSW,240,0.0,0.0,50,0.00,,,0.01,Wunderground v.1.15,2013-08-26 21:50:00,
2013-08-26 17:55:00,82.6,61.5,30.16,WSW,240,0.0,0.0,49,0.00,,,0.01,Wunderground v.1.15,2013-08-26 21:55:00,
2013-08-26 18:00:00,82.6,61.5,30.16,WSW,240,0.0,0.0,49,0.00,,,0.01,Wunderground v.1.15,2013-08-26 22:00:00,
2013-08-26 18:05:00,82.9,61.8,30.16,WSW,240,0.0,0.0,49,0.00,,,0.01,Wunderground v.1.15,2013-08-26 22:05:00,
2013-08-26 18:15:00,81.8,62.5,30.16,WSW,240,0.0,0.0,52,0.00,,,0.01,Wunderground v.1.15,2013-08-26 22:15:00,
2013-08-26 18:20:00,81.3,61.4,30.16,WSW,240,0.0,0.0,51,0.00,,,0.01,Wunderground v.1.15,2013-08-26 22:20:00,
2013-08-26 18:30:00,81.1,62.3,30.16,WSW,240,0.0,0.0,53,0.00,,,0.01,Wunderground v.1.15,2013-08-26 22:30:00,
2013-08-26 18:40:00,80.8,62.6,30.15,WSW,240,0.0,0.0,54,0.00,,,0.01,Wunderground v.1.15,2013-08-26 22:40:00,
2013-08-26 18:50:00,80.0,62.4,30.15,WSW,240,0.0,0.0,55,0.00,,,0.01,Wunderground v.1.15,2013-08-26 22:50:00,
2013-08-26 18:55:00,79.6,63.5,30.15,WSW,240,0.0,0.0,58,0.00,,,0.01,Wunderground v.1.15,2013-08-26 22:55:00,
2013-08-26 19:00:00,79.3,61.7,30.15,WSW,240,0.0,0.0,55,0.00,,,0.01,Wunderground v.1.15,2013-08-26 23:00:00,
2013-08-26 19:05:00,78.9,63.4,30.15,WSW,240,0.0,0.0,59,0.00,,,0.01,Wunderground v.1.15,2013-08-26 23:05:00,
2013-08-26 19:15:00,77.5,64.8,30.14,WSW,240,0.0,0.0,65,0.00,,,0.01,Wunderground v.1.15,2013-08-26 23:15:00,
2013-08-26 19:25:00,75.7,64.8,30.14,WSW,240,0.0,0.0,69,0.00,,,0.01,Wunderground v.1.15,2013-08-26 23:25:00,
2013-08-26 19:35:00,74.3,64.7,30.14,WSW,240,0.0,0.0,72,0.00,,,0.01,Wunderground v.1.15,2013-08-26 23:35:00,
2013-08-26 19:45:00,72.9,63.3,30.14,WSW,240,0.0,0.0,72,0.00,,,0.01,Wunderground v.1.15,2013-08-26 23:45:00,
2013-08-26 19:55:00,72.0,63.6,30.15,WSW,240,0.0,0.0,75,0.00,,,0.01,Wunderground v.1.15,2013-08-26 23:55:00,
2013-08-26 20:05:00,71.2,63.2,30.14,WSW,240,0.0,0.0,76,0.00,,,0.01,Wunderground v.1.15,2013-08-27 00:05:00,
2013-08-26 20:15:00,70.5,63.3,30.14,WSW,240,0.0,0.0,78,0.00,,,0.01,Wunderground v.1.15,2013-08-27 00:15:00,
2013-08-26 20:25:00,69.8,63.0,30.14,WSW,240,0.0,0.0,79,0.00,,,0.01,Wunderground v.1.15,2013-08-27 00:25:00,
2013-08-26 20:35:00,69.3,62.9,30.15,WSW,240,0.0,0.0,80,0.00,,,0.01,Wunderground v.1.15,2013-08-27 00:35:00,
2013-08-26 20:45:00,69.9,63.1,30.14,WSW,240,0.0,0.0,79,0.00,,,0.01,Wunderground v.1.15,2013-08-27 00:45:00,
2013-08-26 20:55:00,69.8,63.3,30.14,WSW,240,0.0,0.0,80,0.00,,,0.01,Wunderground v.1.15,2013-08-27 00:55:00,
2013-08-26 21:05:00,69.2,62.8,30.15,WSW,240,0.0,0.0,80,0.00,,,0.01,Wunderground v.1.15,2013-08-27 01:05:00,
2013-08-26 21:15:00,68.9,62.1,30.15,WSW,240,0.0,0.0,79,0.00,,,0.01,Wunderground v.1.15,2013-08-27 01:15:00,
2013-08-26 21:20:00,68.7,61.9,30.15,WSW,240,0.0,0.0,79,0.00,,,0.01,Wunderground v.1.15,2013-08-27 01:20:00,
2013-08-26 21:30:00,68.6,61.5,30.15,WSW,240,0.0,0.0,78,0.00,,,0.01,Wunderground v.1.15,2013-08-27 01:30:00,
2013-08-26 21:40:00,68.1,61.7,30.15,WSW,240,0.0,0.0,80,0.00,,,0.01,Wunderground v.1.15,2013-08-27 01:40:00,
2013-08-26 21:50:00,67.3,61.6,30.14,WSW,240,0.0,0.0,82,0.00,,,0.01,Wunderground v.1.15,2013-08-27 01:50:00,
2013-08-26 21:55:00,67.0,61.7,30.14,WSW,240,0.0,0.0,83,0.00,,,0.01,Wunderground v.1.15,2013-08-27 01:55:00,
2013-08-26 22:05:00,66.7,61.7,30.15,WSW,240,0.0,0.0,84,0.00,,,0.01,Wunderground v.1.15,2013-08-27 02:05:00,
2013-08-26 22:15:00,66.7,61.0,30.14,WSW,240,0.0,0.0,82,0.00,,,0.01,Wunderground v.1.15,2013-08-27 02:15:00,
2013-08-26 22:25:00,66.7,61.7,30.14,WSW,240,0.0,0.0,84,0.00,,,0.01,Wunderground v.1.15,2013-08-27 02:25:00,
2013-08-26 22:35:00,66.0,61.4,30.14,WSW,240,0.0,0.0,85,0.00,,,0.01,Wunderground v.1.15,2013-08-27 02:35:00,
2013-08-26 22:45:00,65.6,61.0,30.15,WSW,240,0.0,0.0,85,0.00,,,0.01,Wunderground v.1.15,2013-08-27 02:45:00,
2013-08-26 22:55:00,65.5,60.9,30.15,WSW,240,0.0,0.0,85,0.00,,,0.01,Wunderground v.1.15,2013-08-27 02:55:00,
2013-08-26 23:05:00,65.0,60.0,30.15,WSW,240,0.0,0.0,84,0.00,,,0.01,Wunderground v.1.15,2013-08-27 03:05:00,
2013-08-26 23:15:00,64.7,59.8,30.15,WSW,240,0.0,0.0,84,0.00,,,0.01,Wunderground v.1.15,2013-08-27 03:15:00,
2013-08-26 23:20:00,64.6,59.7,30.15,WSW,240,0.0,0.0,84,0.00,,,0.01,Wunderground v.1.15,2013-08-27 03:20:00,
2013-08-26 23:30:00,64.3,59.7,30.15,WSW,240,0.0,0.0,85,0.00,,,0.01,Wunderground v.1.15,2013-08-27 03:30:00,
2013-08-26 23:35:00,64.1,59.2,30.15,WSW,240,0.0,0.0,84,0.00,,,0.01,Wunderground v.1.15,2013-08-27 03:35:00,
2013-08-26 23:45:00,64.3,59.0,30.14,WSW,240,0.0,0.0,83,0.00,,,0.01,Wunderground v.1.15,2013-08-27 03:45:00,
2013-08-26 23:55:00,64.7,59.1,30.15,WSW,240,0.0,0.0,82,0.00,,,0.00,Wunderground v.1.15,2013-08-27 03:55:00,